2023-09-01 12:31:18,  22,  -16.434071050,   64.020647269,  73.049,  5.91,  3.88, 2687090.762407244, -792590.418943632, 5710789.231724846, 0.0
2023-09-01 15:31:44,  22,  -16.434070131,   64.02064698,  73.009,  4.99,  3.88, 2687090.786092703, -792590.3790803519, 5710789.181654018, 0.0682
2023-09-01 18:31:50,  22,  -16.4340692,   64.020646781,  72.968,  4.01,  3.88, 2687090.8008732074, -792590.3359786995, 5710789.135079215, 0.0652
2023-09-01 21:31:42,  22,  -16.434067983,   64.020646172,  73.023,  3.43,  3.87, 2687090.899353773, -792590.3029854418, 5710789.1547822505, 0.1057
2023-09-02 03:31:50,  22,  -16.434064831,   64.020645469,  72.864,  7.71,  3.87, 2687090.943724711, -792590.1553877391, 5710788.977519263, 0.2349
2023-09-02 06:31:46,  22,  -16.434058916,   64.020643967,  72.971,  9.5,  3.88, 2687091.214877217, -792589.9338273328, 5710789.000359889, 0.3509
2023-09-02 12:31:48,  22,  -16.434054801,   64.020642525,  72.866,  9.69,  3.89, 2687091.3662904855, -792589.7687103663, 5710788.835552684, 0.2781
2023-09-02 15:31:40,  22,  -16.43405228,   64.020641671,  73.001,  11.21,  3.88, 2687091.5399711877, -792589.6914217821, 5710788.915207771, 0.2061
2023-09-02 18:31:26,  22,  -16.434049622,   64.020641437,  72.894,  8.95,  3.89, 2687091.5542759965, -792589.5601392636, 5710788.807592982, 0.1704
2023-09-02 21:31:34,  22,  -16.434048059,   64.020640707,  72.81,  8.85,  3.88, 2687091.610772364, -792589.4971235315, 5710788.696432895, 0.1397
2023-09-03 00:31:36,  22,  -16.434046794,   64.020640480,  72.827,  7.3,  3.89, 2687091.6572333085, -792589.4463394405, 5710788.700629975, 0.069
2023-09-03 03:31:34,  22,  -16.43404565,   64.020640115,  72.722,  7.84,  3.88, 2687091.664026524, -792589.3900233288, 5710788.588415963, 0.1257
2023-09-03 12:31:54,  22,  -16.434042287,   64.020639308,  72.686,  8.03,  3.89, 2687091.772991321, -792589.2507217693, 5710788.516645422, 0.1909
2023-09-03 15:31:48,  22,  -16.434041324,   64.020638993,  72.63,  7.8,  3.88, 2687091.7930621193, -792589.2075492152, 5710788.450921705, 0.0812
2023-09-03 18:31:46,  22,  -16.434040455,   64.020638954,  72.635,  7.07,  3.89, 2687091.810932688, -792589.168519693, 5710788.453511975, 0.043
2023-09-03 21:31:42,  22,  -16.434038921,   64.020638511,  72.632,  4.69,  3.89, 2687091.873473684, -792589.1087652722, 5710788.429182078, 0.0899
2023-09-04 03:31:48,  22,  -16.434037296,   64.020637591,  72.551,  5.22,  3.89, 2687091.9503509626, -792589.0486004237, 5710788.311440567, 0.1529
2023-09-04 06:31:48,  22,  -16.434037026,   64.020638001,  72.629,  7.28,  3.89, 2687091.94744854, -792589.03398002, 5710788.401580365, 0.0914
2023-09-04 12:31:44,  22,  -16.434035458,   64.020637673,  72.53,  10.07,  3.89, 2687091.9590715207, -792588.9574734526, 5710788.296566888, 0.1304
2023-09-04 15:31:44,  22,  -16.434034764,   64.020637339,  72.495,  9.52,  3.89, 2687091.986070618, -792588.9300577991, 5710788.248793332, 0.0613
2023-09-04 18:31:56,  22,  -16.434033952,   64.020637273,  72.45,  5.34,  3.89, 2687091.9847403546, -792588.8882705637, 5710788.205117516, 0.0605
2023-09-04 21:31:40,  22,  -16.434033124,   64.020636910,  72.447,  3.68,  3.88, 2687092.029825441, -792588.8593584101, 5710788.184694261, 0.0573
2023-09-05 03:31:52,  22,  -16.434031849,   64.020636456,  72.453,  5.02,  3.88, 2687092.09362229, -792588.8131779417, 5710788.167917767, 0.0805
2023-09-05 06:31:36,  22,  -16.434030911,   64.020636341,  72.453,  3.76,  3.88, 2687092.117651717, -792588.7724474982, 5710788.162301964, 0.0476
2023-09-05 09:32:00,  22,  -16.434030020,   64.020636171,  72.435,  5.82,  3.88, 2687092.1387548535, -792588.7332499194, 5710788.137819213, 0.0508
2023-09-05 12:31:20,  22,  -16.434029309,   64.020635811,  72.436,  7.95,  3.89, 2687092.1836136873, -792588.7102355565, 5710788.121138264, 0.0531
2023-09-05 15:31:18,  22,  -16.434028389,   64.020635446,  72.365,  8.44,  3.89, 2687092.2015933725, -792588.6686382907, 5710788.039488616, 0.0934
2023-09-05 18:31:52,  22,  -16.434027695,   64.020635349,  72.418,  5.61,  3.89, 2687092.2427853425, -792588.6454089838, 5710788.082396259, 0.0639
2023-09-05 21:31:42,  22,  -16.434026546,   64.020635004,  72.426,  3.99,  3.89, 2687092.2952024136, -792588.6022952518, 5710788.072740469, 0.0686
2023-09-06 00:31:50,  22,  -16.434026160,   64.020634885,  72.357,  3.54,  3.88, 2687092.2829898926, -792588.579015177, 5710788.004901657, 0.0728
2023-09-06 03:31:38,  22,  -16.434025442,   64.020634736,  72.357,  3.32,  3.89, 2687092.307244075, -792588.5495663808, 5710787.997625533, 0.0388
2023-09-06 06:32:02,  22,  -16.434024759,   64.020634405,  72.356,  3.4,  3.89, 2687092.3480877914, -792588.5267951177, 5710787.980562839, 0.0498
2023-09-06 09:31:40,  22,  -16.434023967,   64.020634321,  72.345,  4.52,  3.89, 2687092.362496166, -792588.4906697496, 5710787.966572391, 0.0413
2023-09-06 12:31:56,  22,  -16.434023352,   64.020634052,  72.349,  6.65,  3.89, 2687092.3985405318, -792588.4699494265, 5710787.957032107, 0.0427
2023-09-06 15:31:42,  22,  -16.434022771,   64.020633791,  72.332,  3.73,  3.89, 2687092.424522425, -792588.4479943446, 5710787.929004497, 0.0441
2023-09-06 18:32:50,  22,  -16.434021825,   64.020633583,  72.352,  3.45,  3.89, 2687092.4660047065, -792588.412003982, 5710787.936826257, 0.0555
2023-09-07 21:31:38,  22,  -16.434013307,   64.020631131,  72.195,  3.95,  3.86, 2687092.753559114, -792588.0625831797, 5710787.675952156, 0.5223
2023-09-08 00:31:18,  22,  -16.434012348,   64.020630263,  72.251,  4.45,  3.87, 2687092.8737859144, -792588.0491566579, 5710787.6839063605, 0.1212
2023-09-08 03:31:44,  22,  -16.434011516,   64.020630682,  72.26,  4.13,  3.87, 2687092.848802258, -792587.9993730087, 5710787.712457979, 0.0626
2023-09-08 06:31:48,  22,  -16.434010348,   64.020630154,  72.238,  5.59,  3.87, 2687092.906467571, -792587.9568386858, 5710787.666897181, 0.0849
2023-09-08 09:31:44,  22,  -16.434010190,   64.020630234,  72.204,  9.88,  3.86, 2687092.8866784694, -792587.9429470045, 5710787.640239464, 0.036
2023-09-08 12:31:48,  22,  -16.434009307,   64.020630211,  72.2,  10.25,  3.86, 2687092.899423401, -792587.9016918998, 5710787.635520497, 0.0434
2023-09-08 15:31:48,  22,  -16.434008397,   64.020629691,  72.156,  10.05,  3.87, 2687092.9435074315, -792587.8683041796, 5710787.570573424, 0.0853
2023-09-08 18:31:44,  22,  -16.434007445,   64.020629367,  72.15,  8.16,  3.87, 2687092.9852986895, -792587.8320990662, 5710787.549357801, 0.0592
2023-09-08 21:31:46,  22,  -16.434006308,   64.020629352,  72.132,  7.3,  3.87, 2687092.9949061843, -792587.7769698995, 5710787.532444172, 0.0585
2023-09-09 00:31:46,  22,  -16.434005397,   64.020628912,  72.131,  3.98,  3.86, 2687093.049380961, -792587.7465960629, 5710787.51005867, 0.0663
2023-09-09 03:31:48,  22,  -16.434004837,   64.020628864,  72.106,  4.02,  3.86, 2687093.0512375617, -792587.7185955064, 5710787.485240888, 0.0375
2023-09-09 06:31:40,  22,  -16.43400395,   64.020628720,  72.085,  3.65,  3.86, 2687093.068525773, -792587.6784765748, 5710787.459330939, 0.0508
2023-09-09 09:31:54,  22,  -16.434003389,   64.020628519,  72.09,  4.64,  3.87, 2687093.0977071226, -792587.6584847749, 5710787.454010251, 0.0358
2023-09-09 12:31:54,  22,  -16.434002699,   64.020628332,  72.1,  7.22,  3.87, 2687093.129428041, -792587.6326657707, 5710787.453867987, 0.0409
2023-09-09 15:31:50,  22,  -16.434002258,   64.020628032,  72.131,  6.78,  3.86, 2687093.177389227, -792587.6243307557, 5710787.467085574, 0.0504
2023-09-09 18:31:40,  22,  -16.434001477,   64.020627978,  72.109,  4.68,  3.86, 2687093.1841401537, -792587.5865074977, 5710787.444671648, 0.0445
2023-09-09 21:31:54,  22,  -16.434000555,   64.020627606,  72.098,  5.41,  3.87, 2687093.2280294136, -792587.5524505735, 5710787.416617277, 0.0622
2023-09-11 00:31:42,  22,  -16.433993095,   64.020625523,  72.01,  5.73,  3.87, 2687093.4944702564, -792587.2507376267, 5710787.235790239, 0.4413
2023-09-11 03:31:50,  22,  -16.433992409,   64.020625363,  71.961,  6.27,  3.87, 2687093.4987516473, -792587.2170289453, 5710787.183928308, 0.062
2023-09-11 06:31:44,  22,  -16.433991903,   64.020624836,  71.872,  5.46,  3.86, 2687093.519013041, -792587.1972099401, 5710787.078186572, 0.1095
2023-09-11 09:31:54,  22,  -16.433990978,   64.020624899,  71.977,  6.71,  3.87, 2687093.5698691686, -792587.1650550226, 5710787.175652993, 0.1145
2023-09-11 12:31:52,  22,  -16.433990262,   64.020624535,  71.966,  6.99,  3.87, 2687093.6101398114, -792587.1404323907, 5710787.147989284, 0.0547
2023-09-11 18:31:34,  22,  -16.433989064,   64.020624246,  71.965,  3.91,  3.87, 2687093.6540705934, -792587.0923175265, 5710787.132977575, 0.0669
2023-09-11 21:31:36,  22,  -16.433988414,   64.020623953,  71.941,  4.48,  3.87, 2687093.681141743, -792587.0671661685, 5710787.097094642, 0.0515
2023-09-12 03:31:46,  22,  -16.433986803,   64.020623847,  71.944,  0.91,  3.87, 2687093.7148762955, -792586.9949895303, 5710787.094615193, 0.0797
2023-09-12 06:31:48,  22,  -16.433986444,   64.020623467,  71.931,  0.59,  3.86, 2687093.750906082, -792586.9873154756, 5710787.064372252, 0.0477
2023-09-12 12:31:52,  22,  -16.433984803,   64.020622977,  71.899,  6.91,  3.87, 2687093.807260419, -792586.9202814152, 5710787.01167759, 0.1022
2023-09-12 15:31:38,  22,  -16.433983987,   64.020622828,  71.971,  8.62,  3.87, 2687093.8631211673, -792586.8951593554, 5710787.069125989, 0.084
2023-09-12 18:31:34,  22,  -16.433982759,   64.020622204,  71.832,  2.8,  3.87, 2687093.8816862167, -792586.8380332253, 5710786.913699854, 0.1666
2023-09-12 21:31:36,  22,  -16.433982933,   64.020622361,  71.906,  1.29,  3.87, 2687093.895279615, -792586.8509130708, 5710786.987889078, 0.0765
2023-09-13 00:31:12,  22,  -16.433980260,   64.020619805,  69.606,  1.71,  3.87, 2687093.211589577, -792586.5129848785, 5710784.795482706, 2.3213
2023-09-13 03:31:38,  22,  -16.433981538,   64.020622308,  71.999,  2.07,  3.86, 2687093.958745476, -792586.7985174336, 5710787.06890344, 2.41
2023-09-13 06:32:10,  22,  -16.43398058,   64.020621814,  71.825,  2.01,  3.86, 2687093.9463746273, -792586.7460307347, 5710786.888362293, 0.1884
2023-09-13 09:31:36,  22,  -16.433979897,   64.020621686,  71.884,  2.64,  3.86, 2687093.9929150576, -792586.7249397377, 5710786.935149813, 0.0693
2023-09-13 15:32:06,  22,  -16.433978468,   64.020621181,  71.924,  3.7,  3.87, 2687094.078029468, -792586.6771962814, 5710786.946447181, 0.0982
2023-09-13 21:31:34,  22,  -16.433976488,   64.02062066,  71.93,  2.96,  3.87, 2687094.158018757, -792586.5998517383, 5710786.926398858, 0.1131
2023-09-14 00:31:34,  22,  -16.433976107,   64.020620309,  71.944,  3.24,  3.87, 2687094.20290949, -792586.5936697691, 5710786.921843772, 0.0455
2023-09-14 03:31:38,  22,  -16.433975398,   64.020620265,  71.874,  2.83,  3.86, 2687094.1875359146, -792586.552991131, 5710786.8567684945, 0.0783
2023-09-14 06:31:12,  22,  -16.433974499,   64.020619983,  71.868,  3.53,  3.87, 2687094.224556947, -792586.5180808392, 5710786.837603856, 0.0544
2023-09-14 09:31:38,  22,  -16.433973797,   64.020619781,  71.858,  3.35,  3.87, 2687094.249482619, -792586.4896457377, 5710786.818750055, 0.0423
2023-09-14 12:32:04,  22,  -16.433972723,   64.020619404,  71.866,  4.61,  3.87, 2687094.3039379986, -792586.4509565788, 5710786.8075316, 0.0677
2023-09-14 18:31:38,  22,  -16.433970288,   64.020618834,  71.919,  3.32,  3.88, 2687094.4146784237, -792586.3594869905, 5710786.827341187, 0.145
2023-09-14 21:31:56,  22,  -16.433969882,   64.020618624,  71.914,  2.91,  3.88, 2687094.438379174, -792586.3457803379, 5710786.812591481, 0.0311
2023-09-15 00:31:48,  22,  -16.433969585,   64.020618303,  71.888,  2.66,  3.87, 2687094.4624182363, -792586.337730174, 5710786.773543317, 0.0466
2023-09-15 03:32:08,  22,  -16.433968082,   64.020618211,  71.836,  2.42,  3.88, 2687094.470204746, -792586.2634055943, 5710786.722305182, 0.0906
2023-09-15 09:31:52,  22,  -16.433967186,   64.020617835,  71.807,  5.52,  3.87, 2687094.506556066, -792586.2284506941, 5710786.6778743435, 0.0672
2023-09-15 12:31:48,  22,  -16.433966384,   64.020617589,  71.785,  7.06,  3.88, 2687094.5320525174, -792586.195086055, 5710786.646084467, 0.0527
2023-09-15 15:31:48,  22,  -16.433965755,   64.02061734,  71.781,  5.12,  3.87, 2687094.5630069105, -792586.1721506414, 5710786.630329223, 0.0416
2023-09-15 18:31:48,  22,  -16.433964804,   64.020617073,  71.764,  3.58,  3.87, 2687094.594683794, -792586.1330131267, 5710786.60200861, 0.0578
2023-09-15 21:31:42,  22,  -16.433964140,   64.020616909,  71.755,  2.63,  3.87, 2687094.6158513855, -792586.1054067331, 5710786.585909419, 0.0383
2023-09-16 00:31:18,  22,  -16.433963675,   64.020616715,  71.711,  2.68,  3.88, 2687094.6224444485, -792586.0836462345, 5710786.536881927, 0.054
2023-09-16 03:31:50,  22,  -16.4339626,   64.020616508,  71.747,  2.6,  3.87, 2687094.672337498, -792586.0435603786, 5710786.559135741, 0.0678
2023-09-16 06:31:48,  22,  -16.4339619,   64.020616277,  71.775,  2.48,  3.88, 2687094.7159887496, -792586.0207505284, 5710786.573025946, 0.0512
2023-09-16 09:31:40,  22,  -16.433961266,   64.02061608,  71.747,  3.78,  3.87, 2687094.7319304203, -792585.9931320616, 5710786.53823518, 0.0472
2023-09-16 12:32:00,  22,  -16.433960505,   64.020615889,  71.759,  3.02,  3.87, 2687094.765858266, -792585.9643444794, 5710786.53969548, 0.0445
2023-09-16 15:32:36,  22,  -16.433959874,   64.020615602,  71.753,  2.8,  3.86, 2687094.799652581, -792585.9421447676, 5710786.520286675, 0.0449
2023-09-16 18:31:50,  22,  -16.433958827,   64.02061533,  71.753,  2.8,  3.87, 2687094.840280634, -792585.9007535112, 5710786.507004077, 0.0595
2023-09-16 21:32:28,  22,  -16.433954134,   64.020613851,  71.811,  6.33,  3.87, 2687095.0717303753, -792585.7297779464, 5710786.486919139, 0.2885
2023-09-17 00:31:18,  22,  -16.433950893,   64.020613288,  71.857,  7.98,  3.87, 2687095.190006456, -792585.5994420248, 5710786.500777888, 0.1765
2023-09-17 03:32:40,  22,  -16.433950418,   64.020612668,  71.851,  5.88,  3.87, 2687095.2536507677, -792585.5939995694, 5710786.465107662, 0.0732
2023-09-17 15:32:12,  22,  -16.433945709,   64.02061191,  71.675,  6.23,  3.88, 2687095.3177036853, -792585.3728329382, 5710786.269876681, 0.3019
2023-09-17 18:31:50,  22,  -16.433945150,   64.020611443,  71.656,  3.58,  3.87, 2687095.3623416377, -792585.3575021346, 5710786.229991546, 0.0618
2023-09-17 21:31:40,  22,  -16.433943717,   64.020611086,  71.68,  2.63,  3.88, 2687095.4265631572, -792585.3033921312, 5710786.234132973, 0.0841
2023-09-18 00:31:24,  22,  -16.433943504,   64.02061105,  71.679,  2.91,  3.87, 2687095.4325498054, -792585.2942994448, 5710786.231476029, 0.0112
2023-09-18 09:32:06,  22,  -16.433940783,   64.020610326,  71.644,  3.45,  3.87, 2687095.525075607, -792585.1828772305, 5710786.16465756, 0.1595
2023-09-18 12:31:36,  22,  -16.433939953,   64.020610197,  71.639,  5.09,  3.87, 2687095.546855908, -792585.1469890494, 5710786.153863335, 0.0433
2023-09-18 15:31:42,  22,  -16.433939278,   64.020609695,  71.641,  4.39,  3.87, 2687095.605285906, -792585.129812786, 5710786.131147023, 0.065
2023-09-18 18:31:30,  22,  -16.433938359,   64.020609547,  71.757,  3.3,  3.87, 2687095.6809620433, -792585.1052845841, 5710786.228198119, 0.1255
2023-09-18 21:32:38,  22,  -16.433937889,   64.020609319,  71.623,  3.05,  3.87, 2687095.653078654, -792585.0731000188, 5710786.09660465, 0.1383
2023-09-19 09:31:40,  22,  -16.433934884,   64.020608575,  71.591,  9.91,  3.87, 2687095.7527159355, -792584.9492973809, 5710786.031506374, 0.1717
2023-09-19 12:31:34,  22,  -16.433933943,   64.020608347,  71.558,  10.16,  3.87, 2687095.773783348, -792584.9075402643, 5710785.990707023, 0.0621
2023-09-19 18:31:12,  22,  -16.433932164,   64.020607927,  71.596,  9.17,  3.87, 2687095.854728845, -792584.8407244402, 5710786.004357286, 0.1058
2023-09-20 00:31:18,  22,  -16.433930234,   64.020607356,  71.669,  8.7,  3.87, 2687095.966982609, -792584.7754454708, 5710786.042097057, 0.1352
2023-09-20 03:31:42,  22,  -16.433929796,   64.020606679,  71.544,  8.65,  3.87, 2687095.9855958265, -792584.7586068548, 5710785.896668092, 0.1476
2023-09-20 06:31:58,  22,  -16.433929766,   64.020606910,  71.508,  7.84,  3.86, 2687095.948681612, -792584.7461892854, 5710785.875586281, 0.0443
2023-09-20 09:31:52,  22,  -16.433929112,   64.020606838,  71.449,  8.43,  3.88, 2687095.939860202, -792584.7102471187, 5710785.819032149, 0.0676
2023-09-20 12:31:46,  22,  -16.433928278,   64.020606512,  71.498,  9.03,  3.87, 2687096.003319697, -792584.6864486932, 5710785.847161189, 0.0734
2023-09-20 15:31:44,  22,  -16.433927401,   64.020606212,  71.411,  8.35,  3.88, 2687096.007734207, -792584.6430422902, 5710785.754302467, 0.1026
2023-09-20 18:31:48,  22,  -16.433926727,   64.020606127,  71.408,  7.33,  3.88, 2687096.023967541, -792584.6134706815, 5710785.747454798, 0.0344
2023-09-20 21:31:44,  22,  -16.433925904,   64.020605906,  71.459,  6.55,  3.87, 2687096.0780225666, -792584.587459083, 5710785.782509218, 0.0695
2023-09-21 00:31:52,  22,  -16.433879468,   64.020621449,  77.402,  6.19,  3.87, 2687097.7233494367, -792582.7055063165, 5710791.8839922035, 6.5937
2023-09-21 12:31:48,  22,  -16.433922439,   64.020604821,  71.374,  7.78,  3.88, 2687096.1945319707, -792584.4451827101, 5710785.653114415, 6.6474
2023-09-21 15:31:32,  22,  -16.433921739,   64.020604661,  71.353,  8.3,  3.87, 2687096.210771233, -792584.4142873958, 5710785.626423133, 0.0439
2023-09-21 21:31:30,  22,  -16.433919592,   64.020603784,  71.322,  4.32,  3.88, 2687096.3117437046, -792584.3346184547, 5710785.555729003, 0.1468
2023-09-22 00:31:42,  22,  -16.433918932,   64.02060383,  71.382,  4.27,  3.87, 2687096.34166123, -792584.3097968277, 5710785.611912424, 0.0683
2023-09-22 06:31:22,  22,  -16.433918125,   64.020603559,  71.302,  3.42,  3.88, 2687096.3452609885, -792584.2697186283, 5710785.526762522, 0.0942
2023-09-22 09:31:12,  22,  -16.433917558,   64.020603444,  71.384,  5.03,  3.88, 2687096.398610702, -792584.2565495827, 5710785.594860748, 0.0875
2023-09-22 12:31:34,  22,  -16.433916677,   64.020603081,  71.33,  6.86,  3.88, 2687096.42300112, -792584.2188313426, 5710785.528590944, 0.0801
2023-09-22 15:31:34,  22,  -16.433916193,   64.020602878,  71.297,  7.07,  3.87, 2687096.4353437405, -792584.1977981201, 5710785.489012421, 0.0465
2023-09-22 18:31:40,  22,  -16.433914914,   64.020602828,  71.431,  2.2,  3.87, 2687096.5141428076, -792584.15583861, 5710785.607030283, 0.148
2023-09-23 15:31:46,  22,  -16.433909258,   64.020600944,  71.282,  2.42,  3.87, 2687096.710870914, -792583.92552865, 5710785.38108492, 0.3779
2023-09-23 21:31:46,  22,  -16.433906979,   64.020600323,  71.315,  3.31,  3.87, 2687096.815952358, -792583.8403424404, 5710785.380424964, 0.1353
2023-09-24 00:31:48,  22,  -16.433906683,   64.020600206,  71.255,  3.81,  3.87, 2687096.8060838953, -792583.8223418883, 5710785.320774394, 0.0631
2023-09-24 06:31:44,  22,  -16.433905115,   64.020599738,  71.331,  3.97,  3.87, 2687096.904690112, -792583.7714917547, 5710785.366240822, 0.1199
2023-09-24 12:31:40,  22,  -16.43390398,   64.020599510,  71.282,  3.97,  3.87, 2687096.921718703, -792583.7186534234, 5710785.311058243, 0.0783
2023-09-24 18:31:56,  22,  -16.433902357,   64.020598850,  71.226,  3.64,  3.87, 2687096.984080693, -792583.6543088794, 5710785.228487102, 0.1218
2023-09-26 00:31:18,  22,  -16.433892482,   64.020596177,  71.197,  3.61,  3.85, 2687097.3654279746, -792583.2633738813, 5710785.071886596, 0.5681
2023-09-26 03:31:42,  22,  -16.433890836,   64.020595618,  71.149,  3.87,  3.85, 2687097.4217612054, -792583.1960785687, 5710785.001439211, 0.1125
2023-09-26 06:31:58,  22,  -16.433889001,   64.020595115,  71.19,  5.1,  3.85, 2687097.5127197434, -792583.1293612781, 5710785.013733168, 0.1135
2023-09-26 09:32:02,  22,  -16.433886505,   64.020594622,  71.27,  4.38,  3.85, 2687097.6282467563, -792583.0361936048, 5710785.061574564, 0.1559
2023-09-26 12:31:46,  22,  -16.433883989,   64.020593695,  71.325,  3.99,  3.85, 2687097.775262733, -792582.95129429, 5710785.0657486, 0.1698
2023-09-26 18:31:46,  22,  -16.433877584,   64.020591828,  71.178,  3.03,  3.85, 2687097.981558016, -792582.6856228797, 5710784.842431285, 0.4037
2023-09-26 21:32:10,  22,  -16.433876029,   64.020591286,  71.107,  3.13,  3.85, 2687098.025334859, -792582.619263012, 5710784.752138174, 0.1203
2023-09-27 12:31:56,  22,  -16.433871017,   64.020590133,  71.116,  4.19,  3.86, 2687098.2092745453, -792582.4180112332, 5710784.703924147, 0.2769
2023-09-28 15:31:36,  22,  -16.433863894,   64.020588155,  70.992,  9.97,  3.83, 2687098.445834806, -792582.1246638041, 5710784.495862236, 0.4305
2023-09-28 18:31:08,  22,  -16.433862909,   64.020587778,  70.999,  7.42,  3.83, 2687098.4986388115, -792582.0900245458, 5710784.483744808, 0.0643
2023-09-28 21:31:34,  22,  -16.433862287,   64.020587636,  70.979,  7.02,  3.82, 2687098.5124890404, -792582.0624008956, 5710784.458831473, 0.0397
2023-09-29 00:31:36,  22,  -16.433861490,   64.020587597,  70.983,  6.88,  3.83, 2687098.528943367, -792582.0266240336, 5710784.460522788, 0.0394
2023-09-29 03:31:36,  22,  -16.433860771,   64.020587351,  70.991,  6.82,  3.82, 2687098.565896172, -792582.0008697235, 5710784.45570145, 0.0453
2023-09-29 06:31:38,  22,  -16.433860409,   64.020586784,  71.129,  6.74,  3.83, 2687098.6833849144, -792582.0170696311, 5710784.552068372, 0.1528
2023-09-29 09:31:32,  22,  -16.433859490,   64.020586857,  70.962,  7.28,  3.84, 2687098.618915348, -792581.9512041664, 5710784.405508291, 0.1731
2023-09-29 12:31:36,  22,  -16.433858727,   64.020586632,  70.954,  9.67,  3.83, 2687098.6477358476, -792581.9208080915, 5710784.387329225, 0.0457
2023-09-29 15:31:54,  22,  -16.433857975,   64.020586479,  70.92,  7.2,  3.83, 2687098.65855957, -792581.8856644863, 5710784.349293405, 0.0529
2023-09-29 18:31:58,  22,  -16.433857193,   64.020586282,  70.917,  3.62,  3.83, 2687098.6870523016, -792581.854203133, 5710784.336976424, 0.0442
2023-09-29 21:31:50,  22,  -16.433856629,   64.020586013,  70.873,  2.84,  3.83, 2687098.702223791, -792581.8299259753, 5710784.284286446, 0.06
2023-09-30 00:31:18,  22,  -16.433855973,   64.020585742,  71.017,  3.19,  3.83, 2687098.7978488584, -792581.8246891984, 5710784.4005016815, 0.1506
2023-09-30 06:31:30,  22,  -16.433854388,   64.020585299,  70.885,  2.64,  3.84, 2687098.80689547, -792581.7465559733, 5710784.260207009, 0.1608
2023-09-30 09:31:48,  22,  -16.433853172,   64.02058508,  70.983,  3.46,  3.83, 2687098.885941844, -792581.7078809724, 5710784.337609799, 0.1172
2023-09-30 15:31:42,  22,  -16.433852599,   64.020584818,  70.866,  2.9,  3.84, 2687098.8698938484, -792581.6739365611, 5710784.219638195, 0.1238
2023-09-30 18:32:26,  22,  -16.433851455,   64.020584483,  70.926,  2.91,  3.83, 2687098.943128366, -792581.6372177856, 5710784.2572161835, 0.0901
2023-09-30 21:32:30,  22,  -16.433850534,   64.020584218,  70.797,  2.92,  3.82, 2687098.9271408357, -792581.5855505432, 5710784.128310663, 0.1398
2023-10-01 00:31:40,  22,  -16.433849891,   64.020584106,  70.842,  3.97,  3.83, 2687098.965707872, -792581.5641467533, 5710784.163294168, 0.0563
2023-10-01 03:32:04,  22,  -16.433847738,   64.020583502,  70.925,  3.52,  3.83, 2687099.088419854, -792581.4905840128, 5710784.208411928, 0.15
2023-10-01 06:31:28,  22,  -16.433847184,   64.02058339,  70.822,  4.65,  3.83, 2687099.0635731476, -792581.4550129517, 5710784.110350614, 0.1072
2023-10-01 09:31:32,  22,  -16.433846240,   64.020583048,  70.849,  5.24,  3.83, 2687099.1208488336, -792581.423782768, 5710784.117921374, 0.0657
2023-10-01 12:31:44,  22,  -16.433845604,   64.020582902,  70.807,  4.84,  3.84, 2687099.1260338402, -792581.3928895294, 5710784.073035774, 0.0547
2023-10-01 15:32:06,  22,  -16.433844706,   64.020582798,  70.921,  5.03,  3.84, 2687099.1963499044, -792581.367850738, 5710784.170437597, 0.1227
2023-10-01 18:31:28,  22,  -16.433843989,   64.020582494,  70.839,  7.23,  3.83, 2687099.2010362605, -792581.3326811251, 5710784.081878302, 0.0954